Helsinki, Finland

7:34 AM EEST on June 20, 2018 (GMT +0300)
Vantaa

Weather History for EFHK - February, 2012

Change the Weather History Date:

Saturday, February 4, 2012

  Actual Average Record
Temperature  
Mean Temperature -8 °F -  
Max Temperature 1 °F 26 °F 37 °F (2002)
Min Temperature -16 °F 15 °F -16 °F (2012)
Degree Days  
Heating Degree Days 72    
Moisture  
Dew Point -12 °F    
Average Humidity 80    
Maximum Humidity 92    
Minimum Humidity 64    
Precipitation  
Precipitation 0.00 in 0.04 in - ()
Sea Level Pressure  
Sea Level Pressure 30.88 in    
Wind  
Wind Speed 4 mph ()    
Max Wind Speed 9 mph    
Max Gust Speed -    
Visibility 4.9 miles    
Events Snow    
Averages and records for this station are not official NWS values.
T = Trace of Precipitation, MM = Missing Value Source: Averaged Metar Reports

Daily Weather History Graph

Daily Weather History Graph

Search for Another Location

Airport or City:

Astronomy

Feb. 04, 2012 Rise Set
Actual Time 8:30 AM EET 4:38 PM EET
Civil Twilight 7:42 AM EET 5:26 PM EET
Nautical Twilight 6:52 AM EET 6:16 PM EET
Astronomical Twilight 6:03 AM EET 7:05 PM EET
Moon 12:38 PM EET (2/4) 6:20 AM EET (2/4)
Length of Visible Light 9h 43m
Length of Day
8h 08m
Waxing Gibbous, 87% of the Moon is Illuminated
Feb 4
Waxing Gibbous
Feb 7
Full
Feb 14
Last Quarter
Feb 22
New
Mar 1
First Quarter

Hourly Weather History & Observations

Time (EET) Temp. Windchill Dew Point Humidity Pressure Visibility Wind Dir Wind Speed Gust Speed Precip Events Conditions
12:20 AM -4.0 °F -14.6 °F -7.6 °F 85% 30.89 in 2.5 mi NNE 4.6 mph - N/A Snow Light Snow
12:50 AM -2.2 °F -10.4 °F -5.8 °F 85% 30.92 in 2.5 mi North 3.5 mph - N/A Snow Light Snow
1:20 AM -2.2 °F -14.2 °F -5.8 °F 85% 30.92 in 3.1 mi NE 5.8 mph - N/A Snow Light Snow
1:39 AM -2 °F - -7 °F 71% 30.96 in 2 mi ENE 6.7 mph - - Snow Light Snow
1:50 AM -2.2 °F -12.5 °F -5.8 °F 85% 30.92 in 1.7 mi NE 4.6 mph - N/A Snow Light Snow
2:00 AM -2 °F - -7 °F 71% 30.96 in 2 mi ENE 6.7 mph - - Snow Light Snow
2:20 AM -2.2 °F -12.5 °F -5.8 °F 85% 30.92 in 1.7 mi NE 4.6 mph - N/A Snow Light Snow
2:50 AM -2.2 °F -14.2 °F -5.8 °F 85% 30.92 in 1.6 mi NE 5.8 mph - N/A Snow Light Snow
3:20 AM -2.2 °F -12.5 °F -7.6 °F 78% 30.92 in 1.6 mi NE 4.6 mph - N/A Snow Light Snow
3:50 AM -4.0 °F -16.3 °F -7.6 °F 85% 30.92 in 1.9 mi NNE 5.8 mph - N/A Snow Light Snow
4:20 AM -5.8 °F -14.5 °F -9.4 °F 84% 30.92 in 5.0 mi North 3.5 mph - N/A Snow Light Snow
4:50 AM -5.8 °F -14.5 °F -11.2 °F 77% 30.92 in 5.0 mi NNE 3.5 mph - N/A Snow Light Snow
5:20 AM -7.6 °F -16.5 °F -11.2 °F 84% 30.92 in 5.0 mi NNE 3.5 mph - N/A Snow Light Snow
5:50 AM -7.6 °F -18.8 °F -13.0 °F 77% 30.92 in 6.2 mi North 4.6 mph - N/A Snow Light Snow
6:20 AM -9.4 °F -18.6 °F -14.8 °F 77% 30.92 in 5.0 mi NNE 3.5 mph - N/A Snow Light Snow
6:50 AM -9.4 °F - -13.0 °F 84% 30.92 in 5.0 mi North 2.3 mph - N/A Snow Light Snow
7:20 AM -11.2 °F - -14.8 °F 84% 30.92 in 5.0 mi Variable 1.2 mph - N/A Snow Light Snow
7:50 AM -11.2 °F - -16.6 °F 77% 30.92 in 5.0 mi North 2.3 mph - N/A Snow Light Snow
8:00 AM -11 °F - -17 °F 64% 30.95 in 5 mi NNE 6.7 mph - - Snow Light Snow
8:20 AM -14.8 °F - -18.4 °F 84% 30.92 in 5.0 mi North 2.3 mph - N/A Snow Light Snow
8:50 AM -11.2 °F - -16.6 °F 77% 30.92 in 5.0 mi North 2.3 mph - N/A Snow Light Snow
9:20 AM -13.0 °F - -16.6 °F 84% 30.92 in 5.0 mi NNE 2.3 mph - N/A Snow Light Snow
9:50 AM -11.2 °F - -13.0 °F 92% 30.92 in 5.0 mi NNE 1.2 mph - N/A Snow Light Snow
10:20 AM -9.4 °F - -14.8 °F 77% 30.92 in 5.0 mi North 1.2 mph - N/A Snow Light Snow
10:50 AM -9.4 °F - -13.0 °F 84% 30.92 in 5.0 mi NE 2.3 mph - N/A Snow Light Snow
11:20 AM -9.4 °F - -11.2 °F 92% 30.92 in 5.0 mi Variable 1.2 mph - N/A Snow Light Snow
11:50 AM -5.8 °F -14.5 °F -9.4 °F 84% 30.92 in 5.0 mi NNE 3.5 mph - N/A Snow Light Snow
12:20 PM -2.2 °F -12.5 °F -9.4 °F 71% 30.89 in 5.0 mi NE 4.6 mph - N/A Snow Light Snow
12:50 PM -4.0 °F -16.3 °F -11.2 °F 71% 30.89 in 5.0 mi NE 5.8 mph - N/A Snow Light Snow
1:20 PM -4.0 °F -14.6 °F -9.4 °F 78% 30.89 in 6.2 mi NE 4.6 mph - N/A   Mostly Cloudy
1:50 PM -2.2 °F -10.4 °F -7.6 °F 78% 30.89 in 6.2 mi NE 3.5 mph - N/A   Mostly Cloudy
2:00 PM -1 °F - -6 °F 71% 30.94 in 6 mi ENE 4.5 mph - - Snow Light Snow
2:20 PM -2.2 °F -10.4 °F -5.8 °F 85% 30.89 in 6.2 mi NE 3.5 mph - N/A   Mostly Cloudy
2:50 PM -4.0 °F -12.4 °F -7.6 °F 85% 30.89 in 6.2 mi NE 3.5 mph - N/A   Mostly Cloudy
3:20 PM -4.0 °F - -7.6 °F 85% 30.86 in 6.2 mi NE 2.3 mph - N/A   Mostly Cloudy
3:50 PM -7.6 °F - -9.4 °F 92% 30.86 in 6.2 mi Variable 1.2 mph - N/A Snow Light Snow
4:20 PM -5.8 °F -16.7 °F -9.4 °F 84% 30.86 in 6.2 mi NNE 4.6 mph - N/A   Mostly Cloudy
4:50 PM -7.6 °F -18.8 °F -11.2 °F 84% 30.86 in 6.2 mi ENE 4.6 mph - N/A   Mostly Cloudy
5:20 PM -9.4 °F -20.9 °F -14.8 °F 77% 30.83 in 6.2 mi ENE 4.6 mph - N/A   Scattered Clouds
5:50 PM -11.2 °F -24.8 °F -16.6 °F 77% 30.83 in 6.2 mi NE 5.8 mph - N/A   Partly Cloudy
6:20 PM -11.2 °F -20.6 °F -16.6 °F 77% 30.83 in 6.2 mi Variable 3.5 mph - N/A   Partly Cloudy
6:50 PM -9.4 °F -18.6 °F -13.0 °F 84% 30.83 in 6.2 mi NNE 3.5 mph - N/A   Partly Cloudy
7:20 PM -13.0 °F -28.6 °F -18.4 °F 77% 30.83 in 6.2 mi NE 6.9 mph - N/A   Partly Cloudy
7:50 PM -11.2 °F -26.4 °F -16.6 °F 77% 30.80 in 6.2 mi NE 6.9 mph - N/A   Partly Cloudy
8:00 PM -7 °F - -11 °F 71% 30.86 in 6 mi ENE 8.9 mph - -   Partly Cloudy
8:20 PM -11.2 °F -26.4 °F -16.6 °F 77% 30.80 in 6.2 mi NE 6.9 mph - N/A   Partly Cloudy
8:50 PM -11.2 °F -26.4 °F -14.8 °F 84% 30.80 in 6.2 mi NE 6.9 mph - N/A   Partly Cloudy
9:20 PM -9.4 °F -24.3 °F -14.8 °F 77% 30.80 in 5.6 mi NE 6.9 mph - N/A   Ice Crystals
9:50 PM -14.8 °F -29.1 °F -20.2 °F 77% 30.80 in 5.6 mi NE 5.8 mph - N/A   Ice Crystals
10:20 PM -14.8 °F -24.8 °F -20.2 °F 77% 30.77 in 5.6 mi NNE 3.5 mph - N/A   Ice Crystals
10:50 PM -16.6 °F -29.3 °F -22.0 °F 76% 30.77 in 5.6 mi North 4.6 mph - N/A   Ice Crystals
11:20 PM -13.0 °F -25.1 °F -18.4 °F 77% 30.77 in 5.6 mi NNE 4.6 mph - N/A   Ice Crystals
11:50 PM -13.0 °F -25.1 °F -18.4 °F 77% 30.77 in 5.6 mi NE 4.6 mph - N/A   Ice Crystals